QPF
0.00 0.00 0.00 0.00 0.00 0.00 0.00 0.00 0.00 0.00 0.00 0.00 0.00 0.00 0.00 0.00 0.00 0.00 0.00 0.00 0.00 0.00 0.00 0.00 0.01 0.03 0.04 0.03 0.02 0.01 0.01 0.01 0.00 0.00 0.00 0.01 0.01 0.01 0.01 0.01 0.01 0.02 0.03 0.03
0.00 0.00 0.01 0.00 0.00 0.00 0.00 0.00 0.00 0.00 0.00 0.00 0.00 0.00 0.00 0.00 0.00 0.00 0.00 0.00 0.00 0.00 0.01 0.01 0.01 0.01 0.02 0.01 0.01 0.01 0.01 0.01 0.01 0.01 0.01 0.01 0.01 0.00 0.00 0.00 0.01 0.01 0.01 0.01
0.00 0.00 0.00 0.00 0.00 0.00 0.00 0.00 0.00 0.00 0.00 0.00 0.00 0.00 0.00 0.00 0.00 0.00 0.00 0.00 0.00 0.01 0.02 0.01 0.02 0.01 0.01 0.01 0.01 0.01 0.01 0.01 0.01 0.01 0.00 0.00 0.00 0.00 0.00 0.00 0.00 0.00 0.00 0.00
0.00 0.00 0.00 0.00 0.00 0.00 0.00 0.00 0.00 0.00 0.00 0.00 0.00 0.00 0.00 0.00 0.00 0.00 0.00 0.00 0.01 0.01 0.01 0.01 0.01 0.01 0.01 0.01 0.01 0.01 0.01 0.01 0.01 0.01 0.00 0.00 0.00 0.00 0.01 0.01 0.00 0.00 0.00 0.01
0.00 0.00 0.00 0.00 0.00 0.00 0.01 0.00 0.00 0.00 0.00 0.00 0.00 0.00 0.00 0.00 0.00 0.00 0.00 0.00 0.01 0.01 0.02 0.02 0.01 0.01 0.01 0.01 0.01 0.01 0.01 0.01 0.01 0.00 0.00 0.00 0.00 0.00 0.01 0.01 0.00 0.01 0.01 0.01
0.00 0.00 0.00 0.00 0.00 0.00 0.01 0.01 0.01 0.01 0.00 0.00 0.00 0.01 0.00 0.00 0.00 0.00 0.01 0.01 0.02 0.02 0.02 0.01 0.01 0.00 0.00 0.00 0.00 0.00 0.00 0.01 0.01 0.01 0.01 0.00 0.01 0.01 0.02 0.01 0.01 0.02 0.02 0.02
0.00 0.00 0.00 0.00 0.00 0.00 0.01 0.01 0.02 0.02 0.01 0.01 0.01 0.01 0.01 0.01 0.01 0.01 0.02 0.03 0.03 0.02 0.02 0.01 0.01 0.00 0.00 0.00 0.00 0.00 0.01 0.01 0.01 0.00 0.00 0.00 0.01 0.02 0.02 0.01 0.01 0.01 0.01 0.01
0.00 0.00 0.00 0.00 0.00 0.00 0.00 0.01 0.02 0.01 0.01 0.01 0.01 0.01 0.01 0.01 0.01 0.02 0.04 0.04 0.04 0.04 0.03 0.02 0.01 0.01 0.01 0.01 0.01 0.01 0.01 0.01 0.01 0.00 0.00 0.00 0.01 0.02 0.01 0.01 0.02 0.02 0.02 0.02
0.00 0.00 0.00 0.00 0.00 0.00 0.00 0.00 0.00 0.00 0.01 0.02 0.02 0.01 0.00 0.00 0.01 0.01 0.02 0.02 0.02 0.01 0.01 0.02 0.01 0.01 0.01 0.02 0.02 0.01 0.02 0.01 0.01 0.01 0.02 0.01 0.02 0.01 0.01 0.01 0.02 0.03 0.02 0.02
0.01 0.01 0.00 0.00 0.00 0.00 0.00 0.00 0.00 0.00 0.00 0.02 0.02 0.01 0.01 0.01 0.01 0.01 0.01 0.01 0.01 0.01 0.01 0.01 0.02 0.03 0.03 0.03 0.03 0.03 0.02 0.03 0.02 0.03 0.02 0.01 0.01 0.01 0.01 0.01 0.01 0.02 0.03 0.03
0.01 0.01 0.01 0.01 0.01 0.00 0.00 0.00 0.00 0.00 0.00 0.01 0.01 0.01 0.01 0.01 0.01 0.01 0.01 0.01 0.01 0.01 0.01 0.01 0.01 0.02 0.02 0.02 0.03 0.03 0.02 0.02 0.02 0.02 0.02 0.02 0.01 0.01 0.01 0.01 0.02 0.03 0.03 0.03
0.01 0.01 0.01 0.01 0.01 0.01 0.01 0.00 0.00 0.00 0.01 0.01 0.02 0.02 0.02 0.02 0.02 0.02 0.02 0.03 0.03 0.02 0.02 0.01 0.01 0.01 0.01 0.01 0.02 0.02 0.01 0.01 0.02 0.02 0.02 0.01 0.01 0.01 0.02 0.02 0.04 0.04 0.03 0.03
0.00 0.00 0.00 0.00 0.01 0.01 0.01 0.00 0.00 0.01 0.01 0.01 0.01 0.01 0.01 0.01 0.02 0.02 0.02 0.03 0.03 0.03 0.03 0.02 0.02 0.01 0.01 0.02 0.02 0.03 0.02 0.02 0.02 0.02 0.02 0.02 0.01 0.01 0.02 0.03 0.03 0.04 0.04 0.04
0.01 0.01 0.01 0.01 0.01 0.01 0.01 0.01 0.00 0.01 0.01 0.01 0.01 0.01 0.01 0.01 0.01 0.02 0.02 0.03 0.03 0.04 0.04 0.03 0.03 0.02 0.01 0.01 0.02 0.02 0.03 0.03 0.03 0.02 0.02 0.02 0.02 0.01 0.01 0.02 0.02 0.03 0.04 0.03
0.01 0.01 0.01 0.01 0.01 0.01 0.01 0.01 0.01 0.01 0.01 0.01 0.01 0.01 0.01 0.01 0.01 0.02 0.02 0.03 0.03 0.03 0.03 0.03 0.02 0.02 0.01 0.02 0.02 0.02 0.02 0.03 0.03 0.02 0.02 0.02 0.02 0.01 0.01 0.02 0.02 0.02 0.03 0.03
0.01 0.01 0.01 0.01 0.03 0.03 0.02 0.02 0.01 0.01 0.00 0.00 0.01 0.01 0.01 0.01 0.01 0.02 0.02 0.03 0.03 0.02 0.02 0.01 0.02 0.02 0.02 0.03 0.02 0.03 0.03 0.03 0.02 0.02 0.02 0.02 0.02 0.02 0.02 0.02 0.02 0.02 0.02 0.02
0.02 0.02 0.02 0.04 0.07 0.06 0.03 0.02 0.01 0.01 0.01 0.01 0.01 0.01 0.02 0.02 0.02 0.02 0.03 0.03 0.04 0.05 0.04 0.03 0.03 0.02 0.02 0.04 0.03 0.03 0.02 0.02 0.02 0.02 0.02 0.02 0.02 0.02 0.01 0.01 0.02 0.02 0.01 0.01
0.03 0.03 0.03 0.03 0.04 0.03 0.02 0.01 0.01 0.01 0.01 0.02 0.02 0.02 0.03 0.04 0.04 0.04 0.05 0.05 0.06 0.08 0.08 0.05 0.04 0.04 0.03 0.04 0.04 0.02 0.02 0.02 0.02 0.02 0.02 0.02 0.02 0.02 0.02 0.02 0.02 0.02 0.02 0.02
0.03 0.03 0.03 0.03 0.03 0.03 0.02 0.02 0.02 0.01 0.01 0.02 0.03 0.03 0.03 0.04 0.05 0.07 0.08 0.06 0.06 0.08 0.08 0.06 0.05 0.06 0.07 0.05 0.04 0.03 0.02 0.02 0.02 0.03 0.03 0.04 0.04 0.03 0.03 0.04 0.03 0.04 0.03 0.03
0.04 0.04 0.04 0.03 0.04 0.03 0.02 0.02 0.02 0.01 0.01 0.02 0.02 0.03 0.03 0.04 0.06 0.08 0.08 0.07 0.07 0.06 0.07 0.06 0.06 0.06 0.06 0.05 0.03 0.02 0.01 0.01 0.02 0.02 0.02 0.02 0.03 0.03 0.04 0.07 0.09 0.08 0.07 0.06
0.05 0.04 0.03 0.04 0.04 0.03 0.02 0.02 0.02 0.01 0.01 0.01 0.01 0.02 0.02 0.04 0.05 0.05 0.06 0.06 0.05 0.05 0.06 0.05 0.06 0.04 0.03 0.02 0.02 0.01 0.01 0.01 0.01 0.01 0.01 0.01 0.02 0.02 0.02 0.03 0.04 0.05 0.06 0.06
0.05 0.05 0.04 0.04 0.05 0.03 0.01 0.01 0.01 0.01 0.01 0.01 0.01 0.01 0.01 0.02 0.02 0.03 0.04 0.04 0.04 0.03 0.04 0.04 0.04 0.04 0.03 0.03 0.03 0.02 0.02 0.02 0.02 0.02 0.02 0.02 0.02 0.03 0.03 0.04 0.05 0.06 0.08 0.08
0.04 0.06 0.05 0.04 0.05 0.03 0.02 0.02 0.02 0.01 0.01 0.01 0.01 0.01 0.01 0.01 0.01 0.01 0.01 0.02 0.02 0.02 0.02 0.02 0.02 0.03 0.03 0.03 0.02 0.02 0.02 0.02 0.02 0.02 0.02 0.01 0.02 0.02 0.03 0.03 0.03 0.04 0.04 0.05
0.03 0.04 0.03 0.04 0.05 0.04 0.04 0.04 0.03 0.03 0.02 0.01 0.01 0.01 0.01 0.01 0.01 0.01 0.01 0.01 0.01 0.02 0.01 0.01 0.01 0.01 0.02 0.02 0.02 0.02 0.02 0.01 0.01 0.02 0.02 0.03 0.03 0.03 0.03 0.03 0.04 0.04 0.04 0.04
0.03 0.03 0.02 0.03 0.04 0.05 0.05 0.04 0.03 0.02 0.02 0.01 0.01 0.01 0.01 0.01 0.01 0.00 0.01 0.01 0.01 0.02 0.02 0.02 0.02 0.01 0.02 0.01 0.01 0.01 0.01 0.01 0.02 0.02 0.03 0.03 0.03 0.03 0.04 0.04 0.05 0.05 0.05 0.04
0.02 0.03 0.02 0.02 0.02 0.02 0.03 0.02 0.01 0.01 0.02 0.01 0.01 0.01 0.01 0.01 0.01 0.01 0.01 0.01 0.01 0.02 0.03 0.03 0.02 0.02 0.02 0.01 0.01 0.02 0.01 0.01 0.02 0.02 0.02 0.03 0.04 0.05 0.06 0.06 0.06 0.06 0.05 0.05
0.02 0.02 0.02 0.02 0.02 0.01 0.02 0.02 0.01 0.01 0.01 0.01 0.01 0.02 0.01 0.01 0.02 0.01 0.02 0.02 0.02 0.02 0.02 0.02 0.02 0.02 0.02 0.02 0.02 0.02 0.01 0.01 0.01 0.02 0.02 0.03 0.04 0.06 0.07 0.06 0.05 0.05 0.06 0.06
MSLP
1005.16 1005.64 1006.13 1006.61 1007.03 1007.37 1007.63 1007.79 1007.88 1007.91 1007.90 1007.90 1007.92 1007.98 1008.12 1008.32 1008.59 1008.91 1009.27 1009.65 1010.03 1010.39 1010.72 1011.03 1011.31 1011.56 1011.79 1012.00 1012.19 1012.35 1012.49 1012.61 1012.71 1012.80 1012.90 1013.01 1013.15 1013.33 1013.53 1013.77 1014.01 1014.26 1014.50 1014.71
1005.24 1005.58 1005.90 1006.16 1006.36 1006.49 1006.56 1006.60 1006.61 1006.64 1006.69 1006.78 1006.92 1007.12 1007.38 1007.67 1008.00 1008.35 1008.70 1009.05 1009.40 1009.74 1010.08 1010.41 1010.73 1011.05 1011.35 1011.62 1011.86 1012.06 1012.23 1012.35 1012.46 1012.56 1012.67 1012.81 1012.99 1013.22 1013.50 1013.80 1014.11 1014.40 1014.66 1014.88
1005.32 1005.54 1005.69 1005.75 1005.74 1005.66 1005.56 1005.45 1005.38 1005.38 1005.46 1005.62 1005.87 1006.19 1006.54 1006.92 1007.30 1007.67 1008.02 1008.35 1008.68 1009.01 1009.35 1009.72 1010.10 1010.49 1010.87 1011.23 1011.55 1011.82 1012.03 1012.19 1012.31 1012.43 1012.55 1012.72 1012.93 1013.21 1013.53 1013.89 1014.25 1014.59 1014.87 1015.09
1005.21 1005.34 1005.36 1005.27 1005.09 1004.84 1004.58 1004.36 1004.21 1004.17 1004.26 1004.47 1004.80 1005.19 1005.63 1006.07 1006.49 1006.88 1007.23 1007.56 1007.88 1008.21 1008.57 1008.97 1009.42 1009.89 1010.37 1010.83 1011.24 1011.59 1011.87 1012.09 1012.25 1012.38 1012.53 1012.71 1012.94 1013.24 1013.59 1013.98 1014.37 1014.74 1015.05 1015.29
1004.80 1004.86 1004.80 1004.62 1004.32 1003.97 1003.60 1003.29 1003.09 1003.02 1003.11 1003.35 1003.72 1004.17 1004.66 1005.15 1005.60 1006.01 1006.37 1006.69 1007.01 1007.35 1007.74 1008.19 1008.70 1009.26 1009.84 1010.40 1010.92 1011.37 1011.73 1012.01 1012.22 1012.38 1012.54 1012.73 1012.96 1013.26 1013.62 1014.02 1014.43 1014.82 1015.15 1015.41
1004.02 1004.05 1003.96 1003.73 1003.40 1003.00 1002.59 1002.25 1002.01 1001.94 1002.03 1002.28 1002.67 1003.15 1003.67 1004.18 1004.66 1005.08 1005.45 1005.78 1006.11 1006.47 1006.89 1007.39 1007.97 1008.61 1009.28 1009.95 1010.58 1011.12 1011.57 1011.92 1012.18 1012.38 1012.55 1012.73 1012.96 1013.25 1013.60 1013.99 1014.41 1014.81 1015.16 1015.44
1002.92 1002.93 1002.85 1002.64 1002.33 1001.95 1001.57 1001.24 1001.01 1000.94 1001.04 1001.29 1001.69 1002.18 1002.71 1003.23 1003.72 1004.16 1004.54 1004.89 1005.24 1005.62 1006.08 1006.62 1007.25 1007.96 1008.72 1009.48 1010.19 1010.83 1011.36 1011.78 1012.09 1012.33 1012.52 1012.70 1012.92 1013.19 1013.51 1013.90 1014.31 1014.72 1015.10 1015.41
1001.59 1001.61 1001.56 1001.41 1001.17 1000.88 1000.57 1000.30 1000.12 1000.08 1000.19 1000.45 1000.84 1001.32 1001.85 1002.37 1002.87 1003.31 1003.71 1004.08 1004.45 1004.87 1005.35 1005.93 1006.61 1007.36 1008.17 1009.00 1009.79 1010.50 1011.10 1011.58 1011.95 1012.22 1012.43 1012.62 1012.83 1013.08 1013.39 1013.77 1014.18 1014.60 1015.01 1015.37
1000.20 1000.22 1000.22 1000.17 1000.05 999.87 999.67 999.50 999.40 999.40 999.53 999.80 1000.18 1000.65 1001.17 1001.69 1002.19 1002.65 1003.06 1003.45 1003.85 1004.29 1004.79 1005.39 1006.08 1006.86 1007.70 1008.56 1009.38 1010.14 1010.79 1011.32 1011.73 1012.04 1012.28 1012.48 1012.69 1012.95 1013.25 1013.62 1014.05 1014.49 1014.93 1015.33
998.90 998.93 999.00 999.05 999.06 999.03 998.97 998.92 998.91 998.97 999.14 999.41 999.79 1000.25 1000.75 1001.27 1001.77 1002.24 1002.68 1003.09 1003.51 1003.96 1004.47 1005.07 1005.75 1006.51 1007.34 1008.18 1009.01 1009.77 1010.45 1011.01 1011.45 1011.80 1012.07 1012.30 1012.53 1012.80 1013.11 1013.49 1013.93 1014.40 1014.88 1015.33
997.80 997.85 997.99 998.16 998.31 998.43 998.52 998.60 998.69 998.83 999.04 999.33 999.71 1000.16 1000.65 1001.17 1001.67 1002.16 1002.62 1003.05 1003.48 1003.93 1004.43 1005.00 1005.64 1006.35 1007.12 1007.92 1008.70 1009.44 1010.11 1010.67 1011.14 1011.51 1011.81 1012.08 1012.34 1012.62 1012.96 1013.36 1013.82 1014.32 1014.83 1015.33
996.96 997.05 997.27 997.55 997.84 998.11 998.34 998.55 998.75 998.97 999.22 999.54 999.93 1000.38 1000.88 1001.39 1001.91 1002.41 1002.88 1003.33 1003.76 1004.20 1004.66 1005.17 1005.74 1006.37 1007.05 1007.76 1008.47 1009.16 1009.78 1010.33 1010.80 1011.19 1011.52 1011.81 1012.10 1012.42 1012.78 1013.21 1013.68 1014.21 1014.74 1015.27
996.38 996.52 996.82 997.21 997.63 998.04 998.40 998.73 999.03 999.32 999.64 999.99 1000.40 1000.86 1001.36 1001.88 1002.41 1002.92 1003.40 1003.85 1004.27 1004.67 1005.09 1005.53 1006.00 1006.53 1007.10 1007.70 1008.31 1008.91 1009.48 1009.99 1010.45 1010.84 1011.19 1011.51 1011.82 1012.17 1012.55 1012.98 1013.47 1014.00 1014.55 1015.08
996.02 996.22 996.61 997.09 997.62 998.14 998.62 999.05 999.44 999.81 1000.18 1000.57 1001.00 1001.48 1001.98 1002.51 1003.05 1003.56 1004.04 1004.48 1004.87 1005.24 1005.59 1005.95 1006.33 1006.74 1007.19 1007.68 1008.18 1008.70 1009.20 1009.67 1010.09 1010.48 1010.84 1011.17 1011.50 1011.85 1012.24 1012.67 1013.15 1013.66 1014.19 1014.71
995.82 996.10 996.56 997.13 997.74 998.35 998.92 999.43 999.89 1000.32 1000.74 1001.17 1001.62 1002.11 1002.62 1003.15 1003.68 1004.19 1004.65 1005.07 1005.43 1005.75 1006.04 1006.32 1006.61 1006.92 1007.27 1007.65 1008.07 1008.50 1008.93 1009.36 1009.76 1010.14 1010.49 1010.82 1011.15 1011.49 1011.85 1012.26 1012.70 1013.17 1013.66 1014.15
995.78 996.12 996.64 997.26 997.93 998.59 999.22 999.79 1000.30 1000.78 1001.23 1001.68 1002.15 1002.64 1003.15 1003.68 1004.19 1004.67 1005.12 1005.50 1005.83 1006.10 1006.34 1006.56 1006.78 1007.01 1007.28 1007.59 1007.94 1008.31 1008.70 1009.09 1009.47 1009.83 1010.16 1010.48 1010.79 1011.10 1011.42 1011.77 1012.15 1012.56 1012.99 1013.41
995.89 996.28 996.83 997.48 998.17 998.85 999.50 1000.09 1000.63 1001.13 1001.60 1002.06 1002.53 1003.01 1003.51 1004.01 1004.49 1004.94 1005.35 1005.70 1005.99 1006.23 1006.43 1006.60 1006.78 1006.98 1007.21 1007.48 1007.79 1008.14 1008.51 1008.88 1009.24 1009.58 1009.90 1010.18 1010.45 1010.71 1010.98 1011.25 1011.55 1011.87 1012.21 1012.56
996.22 996.62 997.17 997.81 998.48 999.14 999.78 1000.36 1000.90 1001.39 1001.86 1002.31 1002.76 1003.22 1003.68 1004.14 1004.58 1004.99 1005.35 1005.66 1005.92 1006.13 1006.31 1006.47 1006.64 1006.84 1007.07 1007.34 1007.66 1008.01 1008.37 1008.74 1009.09 1009.42 1009.71 1009.96 1010.17 1010.37 1010.55 1010.74 1010.94 1011.17 1011.41 1011.67
996.79 997.19 997.70 998.29 998.90 999.52 1000.10 1000.65 1001.15 1001.61 1002.05 1002.48 1002.89 1003.31 1003.73 1004.13 1004.52 1004.87 1005.19 1005.46 1005.69 1005.89 1006.06 1006.24 1006.43 1006.65 1006.90 1007.21 1007.55 1007.92 1008.30 1008.68 1009.02 1009.33 1009.59 1009.79 1009.94 1010.07 1010.17 1010.26 1010.37 1010.49 1010.64 1010.82
997.64 998.00 998.45 998.95 999.49 1000.02 1000.53 1001.00 1001.45 1001.86 1002.26 1002.64 1003.01 1003.37 1003.73 1004.08 1004.41 1004.70 1004.97 1005.21 1005.41 1005.60 1005.79 1005.99 1006.21 1006.47 1006.77 1007.12 1007.49 1007.89 1008.29 1008.66 1009.00 1009.28 1009.49 1009.64 1009.73 1009.78 1009.80 1009.81 1009.82 1009.86 1009.93 1010.04
998.72 999.02 999.39 999.80 1000.23 1000.66 1001.08 1001.48 1001.85 1002.20 1002.54 1002.86 1003.18 1003.49 1003.78 1004.07 1004.33 1004.58 1004.80 1005.00 1005.19 1005.38 1005.57 1005.80 1006.05 1006.35 1006.69 1007.07 1007.47 1007.88 1008.28 1008.64 1008.95 1009.19 1009.36 1009.45 1009.48 1009.46 1009.40 1009.34 1009.29 1009.26 1009.27 1009.33
999.95 1000.19 1000.47 1000.78 1001.10 1001.43 1001.75 1002.06 1002.35 1002.63 1002.91 1003.17 1003.43 1003.68 1003.92 1004.15 1004.36 1004.55 1004.73 1004.90 1005.07 1005.25 1005.46 1005.69 1005.97 1006.29 1006.65 1007.04 1007.45 1007.85 1008.22 1008.55 1008.81 1009.00 1009.11 1009.14 1009.11 1009.03 1008.92 1008.81 1008.71 1008.64 1008.62 1008.65
1001.21 1001.38 1001.58 1001.79 1002.02 1002.24 1002.47 1002.69 1002.91 1003.13 1003.34 1003.55 1003.76 1003.95 1004.14 1004.31 1004.48 1004.62 1004.77 1004.91 1005.06 1005.23 1005.42 1005.66 1005.93 1006.25 1006.60 1006.97 1007.34 1007.70 1008.02 1008.29 1008.49 1008.62 1008.66 1008.64 1008.55 1008.43 1008.29 1008.16 1008.04 1007.96 1007.94 1007.96
1002.37 1002.48 1002.61 1002.74 1002.87 1003.01 1003.15 1003.30 1003.45 1003.61 1003.77 1003.93 1004.09 1004.24 1004.38 1004.51 1004.63 1004.74 1004.85 1004.96 1005.09 1005.23 1005.41 1005.63 1005.88 1006.16 1006.47 1006.79 1007.10 1007.39 1007.64 1007.83 1007.96 1008.01 1007.99 1007.92 1007.80 1007.66 1007.51 1007.37 1007.26 1007.20 1007.19 1007.23
1003.31 1003.38 1003.45 1003.51 1003.58 1003.64 1003.72 1003.80 1003.89 1004.00 1004.11 1004.23 1004.35 1004.47 1004.58 1004.67 1004.76 1004.83 1004.91 1004.99 1005.08 1005.20 1005.34 1005.52 1005.72 1005.95 1006.20 1006.45 1006.68 1006.89 1007.05 1007.16 1007.21 1007.19 1007.13 1007.01 1006.88 1006.73 1006.59 1006.47 1006.40 1006.36 1006.38 1006.45
1003.98 1004.02 1004.04 1004.05 1004.06 1004.07 1004.09 1004.13 1004.18 1004.25 1004.33 1004.41 1004.50 1004.59 1004.66 1004.73 1004.78 1004.83 1004.87 1004.92 1004.98 1005.06 1005.16 1005.29 1005.44 1005.61 1005.78 1005.95 1006.10 1006.22 1006.30 1006.33 1006.31 1006.25 1006.14 1006.01 1005.87 1005.74 1005.63 1005.54 1005.50 1005.51 1005.56 1005.65
1004.37 1004.38 1004.37 1004.35 1004.32 1004.29 1004.28 1004.28 1004.30 1004.34 1004.39 1004.45 1004.52 1004.57 1004.62 1004.66 1004.69 1004.71 1004.72 1004.74 1004.77 1004.81 1004.87 1004.94 1005.04 1005.14 1005.25 1005.34 1005.42 1005.47 1005.48 1005.46 1005.40 1005.30 1005.18 1005.05 1004.93 1004.82 1004.74 1004.69 1004.69 1004.72 1004.80 1004.90
Thickness
5792 5801 5802 5799 5800 5803 5804 5810 5809 5815 5820 5827 5834 5837 5838 5838 5836 5833 5830 5829 5827 5824 5821 5817 5813 5810 5807 5804 5801 5797 5792 5787 5783 5779 5776 5773 5769 5765 5762 5760 5758 5754 5751 5748
5777 5791 5794 5792 5799 5802 5803 5809 5813 5817 5819 5835 5839 5839 5834 5833 5831 5828 5827 5826 5825 5822 5819 5815 5812 5809 5806 5803 5800 5796 5792 5788 5784 5780 5775 5772 5768 5765 5761 5758 5755 5752 5749 5746
5766 5781 5781 5775 5794 5798 5801 5809 5811 5809 5819 5828 5825 5826 5828 5829 5828 5827 5826 5825 5822 5820 5818 5815 5812 5810 5805 5803 5800 5796 5791 5788 5785 5780 5776 5772 5769 5765 5761 5757 5754 5750 5746 5743
5764 5761 5747 5783 5808 5808 5803 5806 5814 5816 5822 5824 5824 5828 5830 5831 5828 5826 5826 5824 5822 5821 5819 5817 5814 5810 5806 5804 5799 5795 5791 5787 5784 5780 5776 5771 5768 5764 5759 5756 5752 5747 5744 5741
5756 5752 5760 5778 5792 5798 5792 5793 5810 5811 5815 5819 5823 5823 5822 5827 5828 5827 5826 5825 5823 5822 5820 5817 5813 5809 5805 5801 5798 5793 5790 5786 5784 5780 5775 5770 5765 5761 5757 5754 5750 5746 5742 5738
5747 5745 5745 5770 5792 5801 5793 5781 5805 5809 5808 5811 5813 5806 5813 5823 5824 5825 5824 5823 5821 5820 5818 5813 5810 5808 5802 5798 5795 5792 5790 5786 5784 5779 5774 5769 5764 5760 5756 5752 5748 5744 5739 5735
5740 5743 5759 5777 5787 5789 5766 5776 5800 5805 5805 5806 5805 5809 5815 5818 5818 5818 5818 5817 5816 5814 5812 5809 5807 5804 5798 5795 5792 5791 5788 5784 5780 5776 5772 5768 5763 5758 5753 5749 5745 5740 5736 5732
5737 5737 5747 5770 5775 5772 5775 5789 5794 5798 5800 5800 5802 5805 5807 5808 5808 5809 5809 5810 5809 5806 5804 5804 5802 5798 5794 5791 5791 5788 5784 5779 5775 5772 5770 5766 5760 5755 5750 5746 5740 5736 5732 5729
5739 5743 5752 5763 5768 5774 5779 5780 5785 5789 5793 5795 5794 5795 5797 5797 5799 5801 5802 5802 5802 5800 5796 5796 5795 5793 5788 5786 5784 5781 5777 5773 5770 5767 5764 5762 5756 5751 5747 5742 5739 5735 5731 5728
5729 5737 5746 5753 5760 5766 5771 5773 5779 5783 5787 5789 5787 5788 5788 5789 5791 5792 5794 5794 5794 5792 5788 5787 5787 5786 5784 5782 5779 5775 5771 5767 5764 5760 5756 5754 5751 5749 5745 5741 5737 5733 5729 5725
5718 5728 5736 5742 5750 5756 5761 5767 5771 5775 5779 5781 5780 5780 5780 5781 5782 5783 5784 5786 5786 5783 5781 5781 5781 5779 5777 5775 5772 5768 5765 5761 5758 5756 5753 5748 5746 5744 5742 5738 5736 5730 5727 5723
5714 5723 5728 5733 5743 5749 5751 5755 5760 5763 5766 5771 5773 5773 5774 5774 5775 5775 5775 5775 5775 5775 5774 5774 5773 5771 5770 5768 5765 5761 5758 5755 5754 5753 5749 5746 5743 5738 5733 5731 5725 5721 5717 5714
5713 5721 5725 5730 5735 5741 5743 5747 5751 5754 5757 5761 5764 5766 5765 5765 5766 5766 5766 5765 5765 5765 5765 5764 5763 5762 5763 5762 5759 5755 5753 5751 5751 5749 5746 5743 5740 5736 5730 5723 5717 5713 5709 5705
5706 5710 5712 5720 5725 5731 5735 5739 5743 5746 5750 5753 5754 5755 5757 5757 5756 5756 5756 5757 5757 5756 5754 5754 5753 5753 5755 5754 5752 5749 5748 5746 5745 5743 5742 5739 5736 5733 5729 5724 5718 5714 5706 5699
5697 5703 5707 5713 5718 5721 5725 5729 5731 5734 5738 5740 5742 5743 5744 5745 5745 5745 5747 5748 5746 5745 5744 5744 5744 5744 5746 5746 5744 5742 5742 5741 5739 5738 5737 5734 5731 5727 5723 5719 5715 5711 5706 5697
5691 5696 5700 5703 5706 5710 5714 5717 5720 5722 5726 5728 5730 5732 5733 5735 5735 5735 5736 5737 5735 5735 5734 5734 5735 5736 5738 5737 5735 5735 5734 5731 5729 5730 5729 5726 5723 5719 5715 5711 5707 5703 5700 5695
5681 5684 5689 5692 5697 5701 5704 5707 5710 5713 5715 5718 5719 5721 5722 5723 5722 5722 5724 5726 5725 5724 5724 5725 5725 5727 5728 5728 5728 5728 5728 5724 5719 5721 5719 5717 5713 5710 5707 5704 5700 5697 5694 5690
5679 5683 5687 5689 5691 5692 5695 5698 5701 5703 5705 5707 5709 5710 5711 5710 5710 5710 5712 5713 5712 5712 5714 5715 5716 5716 5717 5717 5719 5720 5720 5717 5713 5712 5710 5707 5704 5701 5699 5695 5692 5688 5685 5681
5674 5677 5680 5682 5685 5687 5688 5689 5692 5694 5696 5698 5699 5699 5699 5700 5701 5701 5702 5701 5701 5700 5702 5705 5703 5707 5708 5708 5708 5708 5709 5707 5704 5701 5698 5693 5691 5690 5688 5685 5682 5679 5676 5672
5665 5669 5672 5674 5677 5679 5680 5682 5683 5685 5687 5689 5689 5689 5689 5690 5691 5691 5691 5691 5692 5693 5694 5694 5695 5697 5697 5698 5697 5700 5699 5697 5694 5691 5688 5685 5682 5680 5677 5675 5673 5670 5667 5664
5655 5658 5661 5664 5667 5670 5672 5673 5674 5676 5677 5679 5679 5680 5680 5681 5682 5682 5682 5682 5683 5684 5684 5683 5685 5687 5687 5686 5685 5689 5689 5687 5684 5682 5678 5676 5673 5670 5668 5665 5663 5660 5657 5654
5646 5648 5651 5654 5657 5660 5664 5664 5665 5666 5668 5669 5670 5671 5672 5672 5673 5673 5674 5674 5676 5673 5676 5678 5679 5676 5676 5674 5677 5678 5677 5676 5673 5671 5669 5666 5664 5661 5658 5655 5652 5649 5646 5644
5637 5638 5641 5644 5647 5650 5654 5656 5656 5658 5660 5661 5661 5663 5664 5664 5666 5665 5665 5667 5668 5665 5667 5670 5667 5663 5662 5665 5668 5667 5666 5665 5664 5662 5660 5657 5655 5652 5650 5647 5643 5640 5638 5635
5630 5631 5633 5636 5639 5641 5642 5645 5647 5649 5651 5652 5653 5654 5655 5656 5657 5659 5659 5656 5655 5654 5658 5656 5653 5652 5651 5657 5657 5657 5656 5655 5654 5653 5652 5650 5646 5644 5641 5638 5635 5633 5629 5626
5623 5625 5628 5629 5631 5634 5636 5638 5639 5641 5643 5645 5646 5647 5649 5649 5649 5650 5649 5648 5645 5645 5647 5646 5644 5643 5645 5649 5649 5648 5646 5645 5645 5644 5643 5640 5638 5635 5633 5630 5627 5624 5621 5618
5618 5620 5622 5623 5626 5628 5631 5633 5634 5635 5636 5637 5638 5639 5640 5640 5640 5640 5639 5639 5639 5637 5639 5639 5639 5636 5639 5640 5639 5638 5637 5637 5636 5635 5633 5630 5628 5625 5623 5620 5617 5614 5611 5609
5615 5616 5616 5619 5621 5624 5626 5626 5627 5628 5629 5629 5628 5629 5630 5631 5631 5631 5630 5631 5631 5631 5631 5631 5632 5631 5631 5631 5630 5629 5628 5627 5626 5624 5622 5619 5617 5614 5612 5609 5606 5604 5601 5599